Skagway, AK

6:44 AM AKDT on May 27, 2017 (GMT -0800)
Skagway

Weather History for PAGY - September, 2012

Change the Weather History Date:

Tuesday, September 11, 2012

  Actual Average Record
Temperature  
Mean Temperature 46 °F -  
Max Temperature 50 °F 54 °F 69 °F (1983)
Min Temperature 42 °F 43 °F 30 °F (1970)
Degree Days  
Heating Degree Days 19    
Moisture  
Dew Point 42 °F    
Average Humidity 90    
Maximum Humidity 97    
Minimum Humidity 71    
Precipitation  
Precipitation 0.13 in - - ()
Sea Level Pressure  
Sea Level Pressure 30.04 in    
Wind  
Wind Speed 2 mph (SSE)    
Max Wind Speed 18 mph    
Max Gust Speed 26 mph    
Visibility 8 miles    
Events Rain    
Averages and records for this station are not official NWS values.
T = Trace of Precipitation, MM = Missing Value Source: NWS Daily Summary

Daily Weather History Graph

Daily Weather History Graph

Search for Another Location

Airport or City:

Trip Planner

Search our weather history database for the weather conditions in past years. The results will help you decide how hot, cold, wet, or windy it might be!

Date:

Astronomy

Sep. 11, 2012 Rise Set
Actual Time 6:22 AM AKDT 7:31 PM AKDT
Civil Twilight 5:40 AM AKDT 8:13 PM AKDT
Nautical Twilight 4:47 AM AKDT 9:05 PM AKDT
Astronomical Twilight 3:47 AM AKDT 10:04 PM AKDT
Moon 12:50 AM AKDT (9/11) 5:33 PM AKDT (9/11)
Length of Visible Light 14h 33m
Length of Day
13h 09m
Waning Crescent, 20% of the Moon is Illuminated
Sep 11
Waning Crescent
Sep 15
New
Sep 22
First Quarter
Sep 29
Full
Oct 7
Last Quarter

Hourly Weather History & Observations

Time (AKDT) Temp. Windchill Dew Point Humidity Pressure Visibility Wind Dir Wind Speed Gust Speed Precip Events Conditions
12:24 AM 42.8 °F - 41.0 °F 93% 30.00 in 10.0 mi Calm Calm - N/A   Overcast
12:53 AM 43.0 °F - 42.1 °F 97% 30.00 in 10.0 mi Calm Calm - 0.00 in Rain Light Rain
1:53 AM 42.1 °F 39.2 °F 39.9 °F 92% 30.01 in 10.0 mi NW 4.6 mph - 0.00 in   Mostly Cloudy
2:14 AM 42.8 °F - 41.0 °F 93% 30.01 in 10.0 mi Calm Calm - N/A   Overcast
2:53 AM 42.1 °F - 39.9 °F 92% 30.02 in 10.0 mi Calm Calm - N/A   Overcast
3:17 AM 42.8 °F - 39.2 °F 87% 30.02 in 10.0 mi Calm Calm - N/A   Overcast
3:51 AM 42.8 °F 41.1 °F 39.2 °F 87% 30.02 in 10.0 mi NE 3.5 mph - N/A   Overcast
3:53 AM 42.1 °F - 39.9 °F 92% 30.02 in 10.0 mi Calm Calm - N/A   Overcast
4:37 AM 42.8 °F - 39.2 °F 87% 30.02 in 10.0 mi Calm Calm - N/A   Overcast
4:53 AM 42.1 °F - 41.0 °F 96% 30.03 in 10.0 mi Calm Calm - N/A   Overcast
5:07 AM 42.8 °F - 39.2 °F 87% 30.03 in 10.0 mi Calm Calm - N/A   Overcast
5:53 AM 42.1 °F - 39.9 °F 92% 30.04 in 10.0 mi Calm Calm - N/A   Overcast
6:40 AM 42.8 °F - 41.0 °F 93% 30.05 in 10.0 mi Calm Calm - 0.00 in Rain Light Rain
6:49 AM 42.8 °F - 39.2 °F 87% 30.05 in 7.0 mi Calm Calm - 0.00 in Rain Light Rain
6:53 AM 42.1 °F - 39.9 °F 92% 30.05 in 5.0 mi Calm Calm - 0.00 in Rain Light Rain
7:10 AM 42.8 °F - 41.0 °F 93% 30.05 in 3.0 mi Calm Calm - 0.00 in Rain Light Rain
7:22 AM 42.8 °F - 41.0 °F 93% 30.05 in 2.0 mi Calm Calm - 0.00 in Rain Light Rain
7:31 AM 42.8 °F - 41.0 °F 93% 30.06 in 3.0 mi Calm Calm - 0.01 in Rain Light Rain
7:43 AM 42.8 °F - 41.0 °F 93% 30.05 in 4.0 mi Calm Calm - 0.01 in Rain Light Rain
7:53 AM 43.0 °F - 41.0 °F 93% 30.06 in 5.0 mi Calm Calm - 0.01 in Rain Light Rain
8:30 AM 42.8 °F - 41.0 °F 93% 30.05 in 5.0 mi Calm Calm - 0.01 in Rain Light Rain
8:51 AM 42.8 °F - 41.0 °F 93% 30.06 in 9.0 mi Calm Calm - 0.02 in Rain Light Rain
8:53 AM 43.0 °F - 41.0 °F 93% 30.06 in 10.0 mi Calm Calm - 0.02 in Rain Light Rain
9:12 AM 44.6 °F - 42.8 °F 93% 30.06 in 10.0 mi Calm Calm - 0.00 in   Overcast
9:32 AM 44.6 °F - 42.8 °F 93% 30.07 in 10.0 mi Calm Calm - 0.00 in   Overcast
9:53 AM 44.1 °F - 41.0 °F 89% 30.07 in 10.0 mi Calm Calm - 0.00 in   Overcast
10:53 AM 44.1 °F 41.5 °F 41.0 °F 89% 30.08 in 10.0 mi SSW 4.6 mph - N/A   Overcast
11:53 AM 44.1 °F 42.5 °F 41.0 °F 89% 30.09 in 10.0 mi SSW 3.5 mph - N/A   Overcast
12:53 PM 45.0 °F - 42.1 °F 90% 30.09 in 10.0 mi Calm Calm - 0.00 in   Overcast
1:53 PM 46.0 °F 40.6 °F 42.1 °F 86% 30.09 in 10.0 mi SSW 11.5 mph - N/A   Overcast
2:12 PM 48.2 °F - 42.8 °F 82% 30.08 in 10.0 mi SSW 15.0 mph - N/A   Overcast
2:53 PM 48.9 °F - 43.0 °F 80% 30.08 in 10.0 mi SSW 18.4 mph - N/A   Overcast
3:53 PM 50.0 °F - 42.1 °F 74% 30.07 in 10.0 mi SSW 16.1 mph 26.5 mph N/A   Overcast
4:53 PM 50.0 °F - 41.0 °F 71% 30.06 in 10.0 mi SSW 12.7 mph - N/A   Overcast
5:53 PM 50.0 °F - 41.0 °F 71% 30.05 in 10.0 mi SSW 12.7 mph 20.7 mph 0.00 in Rain Light Rain
6:53 PM 48.9 °F - 42.1 °F 77% 30.04 in 10.0 mi East 3.5 mph - 0.00 in   Overcast
7:38 PM 46.4 °F - 42.8 °F 87% 30.03 in 10.0 mi Calm Calm - N/A   Overcast
7:53 PM 48.0 °F - 43.0 °F 83% 30.03 in 10.0 mi ENE 3.5 mph - N/A   Overcast
8:22 PM 46.4 °F 45.2 °F 44.6 °F 93% 30.02 in 10.0 mi ENE 3.5 mph - 0.00 in   Overcast
8:33 PM 46.4 °F 44.3 °F 44.6 °F 93% 30.01 in 7.0 mi NNE 4.6 mph - 0.00 in Rain Light Rain
8:53 PM 46.9 °F - 44.1 °F 90% 30.02 in 7.0 mi NE 4.6 mph - 0.00 in   Overcast
9:53 PM 46.0 °F - 45.0 °F 96% 30.01 in 7.0 mi Calm Calm - 0.01 in Rain Light Rain
10:01 PM 46.4 °F - 44.6 °F 93% 30.01 in 6.0 mi Calm Calm - 0.00 in Rain Light Rain
10:34 PM 46.4 °F - 44.6 °F 93% 30.00 in 7.0 mi Calm Calm - 0.01 in Rain Light Rain
10:41 PM 46.4 °F - 44.6 °F 93% 30.00 in 6.0 mi Calm Calm - 0.02 in Rain Light Rain
10:53 PM 46.0 °F 44.8 °F 44.1 °F 93% 29.99 in 7.0 mi North 3.5 mph - 0.03 in Rain Light Rain
11:10 PM 46.4 °F - 44.6 °F 93% 29.99 in 6.0 mi Calm Calm - 0.01 in Rain Light Rain
11:31 PM 46.4 °F - 44.6 °F 93% 29.99 in 6.0 mi Calm Calm - 0.04 in Rain Light Rain
11:53 PM 46.0 °F - 44.1 °F 93% 29.99 in 7.0 mi Calm Calm - 0.06 in Rain Light Rain